STARLINK-31865, 59791

Orbit data source: Space-Track

STARLINK-31865, 59791 is a payload satellite in LEO that was launched on Sat, 18 May 2024 UTC via an FALCON 9 launch vehicle from the Air Force Eastern Test Range (AFETR). Payload-class satellites include a variety of spacecraft equipped with specific instruments for various scientific and technological missions. These include communications satellites like Starlink; space stations such as the ISS; scientific satellites like the Hubble; Earth observation satellites from companies like Planet Labs, Umbra, and HawkEye 360; GPS; miniature CubeSats for education and research; and military/defense satellites.

Loading next visibility...
Identifier
59791, 2024-093K
Orbit
LEO
Last TLE update
1 day ago
Origin
Manufacturer
SpaceX/Seattle
Mission
Operational spacecraft
Bus & Motor
STARLINK V2M, Unknown motor
Mass
730 kg wet, ~700 kg dry
Launch date (UTC)
2024-05-18 (1 year ago)
Launch vehicle
FALCON 9
Launch site
Air Force Eastern Test Range (AFETR)
Object type
Payload
Rocket body
Debris
Shape & HBR
Unknown
Radar Cross Section
Large (>1 m²)

Expand to show TLE details & history

TLE from 1 day ago
0 STARLINK-31865
1 59791U 24093K   25138.51632455 -.00006832  00000-0 -23911-3 0  9999
2 59791  42.9981  75.7788 0000551 308.9496  51.1307 15.27564421 57554
Epoch: 2025-05-18T12:23Z
TLE epoch observation values (Epoch: 2025-05-18T12:23:30.441Z)
Latitude
0.00004°
Longitude
13.45983°
Altitude
482.634 km
Speed
7.626 km/s
True Right ascension
05h 03m 06s
True Declination
0° 00' 00"
Sunlit
Object was in daylight at epoch
Visualization orbit readout
Latitude
43.15435°
Longitude
97.13782°
Altitude
486.55 km
Speed
7.628 km/s
Apparent Right ascension
09h 53m 41s
Apparent Declination
3° 32' 30"
Sunlit
Object is in daylight
Visualization observer readout
Local Sidereal Time
21:08:28
Azimuth
343.849° N
Elevation
-45.32°
Doppler factor
1
Orbital elements
Apogee altitude
485.419 km
Perigee altitude
484.663 km
Semi-major axis
6,863.178 km
Eccentricity
0.00006
Inclination
42.9981°
RAAN
75.7788°
Arg. of periapsis
308.9496°
True anomaly
Unknown
Mean anomaly
51.1307°
Eccentric anomaly
Unknown
Mean motion
3.81729 °/min
Orbital period
94.31 mins
BSTAR
-0.00023911
Loading maneuver chart data...
Loading SW <> Apogee altitude chart data...
Loading historical data...
Loading historical data...
Loading historical data...
Loading historical data...
Loading historical data...
Loading historical data...
Loading historical data...

STARLINK-31865 Visibility forecast

Observer location: undefined°, undefined°

Span
Click to sort rows by Start time (UTC) header in descending order
Start Az.
Max El. time (UTC)
Max El. Az.
Max El.
End time (UTC)
End Az.
5 mins2025-05-19 23:09:15.310Z223.156° SW2025-05-19 23:11:15.310Z158.284° S38.864°2025-05-19 23:14:15.310Z79.841° E
5 mins2025-05-20 00:48:15.310Z279.934° WNW2025-05-20 00:50:15.310Z349.263° N40.186°2025-05-20 00:53:15.310Z69.115° E
5 mins2025-05-20 02:27:15.310Z294.993° NW2025-05-20 02:29:15.310Z348.148° N40.247°2025-05-20 02:32:15.310Z87.124° E
5 mins2025-05-20 04:06:15.310Z273.223° WNW2025-05-20 04:08:15.310Z218.231° SW36.734°2025-05-20 04:11:15.310Z135.258° SSE
|